This is the latest recevied weather packets stored in our database for station/object BRIVER. If no packets are shown the sender has not sent any weather packets the latest 10 day(s).
| Time | Temp. | Humidity | Pressure | Rain* | Wind** | Luminosity | Snow |
|---|---|---|---|---|---|---|---|
| 1777932031 | 16.11° C | 74% | 1008.4 hPa | 0 mm | - | - | - |
| 1777931731 | 16.11° C | 75% | 1008.5 hPa | 0 mm | - | - | - |
| 1777931552 | 16.11° C | 73% | 1008.5 hPa | 0 mm | - | - | - |
| 1777931431 | 15.56° C | 75% | 1008.5 hPa | 0 mm | - | - | - |
| 1777931131 | 16.11° C | 75% | 1008.4 hPa | 0 mm | - | - | - |
| 1777931012 | 16.11° C | 74% | 1008.4 hPa | 0 mm | - | - | - |
| 1777930831 | 16.11° C | 75% | 1008.5 hPa | 0 mm | - | - | - |
| 1777930531 | 16.11° C | 75% | 1008.5 hPa | 0 mm | - | - | - |
| 1777930472 | 16.11° C | 76% | 1008.4 hPa | 0 mm | - | - | - |
| 1777930231 | 15.56° C | 76% | 1008.3 hPa | 0 mm | - | - | - |
| 1777929931 | 15° C | 77% | 1008.3 hPa | 0 mm | - | - | - |
| 1777929631 | 15.56° C | 74% | 1008.2 hPa | 0 mm | - | - | - |
| 1777929392 | 15.56° C | 78% | 1008.4 hPa | 0 mm | - | - | - |
| 1777929331 | 15.56° C | 77% | 1008.4 hPa | 0 mm | - | - | - |
| 1777929031 | 15° C | 78% | 1008.3 hPa | 0 mm | - | - | - |
| 1777928854 | 15° C | 79% | 1008.3 hPa | 0 mm | - | - | - |
| 1777928731 | 15° C | 79% | 1008.2 hPa | 0 mm | - | - | - |
| 1777928431 | 14.44° C | 80% | 1008.2 hPa | 0 mm | - | - | - |
| 1777928313 | 14.44° C | 81% | 1008.2 hPa | 0 mm | - | - | - |
| 1777928131 | 13.89° C | 80% | 1008.2 hPa | 0 mm | - | - | - |
| 1777927831 | 13.89° C | 82% | 1008 hPa | 0 mm | - | - | - |
| 1777927772 | 13.89° C | 82% | 1008.1 hPa | 0 mm | - | - | - |
| 1777927531 | 13.89° C | 81% | 1008.2 hPa | 0 mm | - | - | - |
| 1777927231 | 13.89° C | 82% | 1008.1 hPa | 0 mm | - | - | - |
| 1777926931 | 13.33° C | 82% | 1008.2 hPa | 0 mm | - | - | - |
* Rain latest hour (hover to see other rain measurements)
** Current wind speed in m/s (hover to see current wind gust speed)